Sierra Vista, AZ

1:18 AM MST on October 18, 2017 (GMT -0700)
Sierra Vista Municipal-Libby Army Air Field

Weather History for KFHU - November, 2010

Change the Weather History Date:

Thursday, November 18, 2010

  Actual Average Record
Temperature  
Mean Temperature 58 °F -  
Max Temperature 71 °F 66 °F 78 °F (1990)
Min Temperature 44 °F 44 °F 31 °F (1985)
Degree Days  
Heating Degree Days 8    
Growing Degree Days 8 (Base 50)    
Moisture  
Dew Point 23 °F    
Average Humidity 28    
Maximum Humidity 39    
Minimum Humidity 16    
Precipitation  
Precipitation 0.00 in - - ()
Sea Level Pressure  
Sea Level Pressure 30.11 in    
Wind  
Wind Speed 7 mph (SE)    
Max Wind Speed 10 mph    
Max Gust Speed 15 mph    
Visibility 10 miles    
Events      
Averages and records for this station are not official NWS values.
T = Trace of Precipitation, MM = Missing Value Source: NWS Daily Summary

Daily Weather History Graph

Daily Weather History Graph

Search for Another Location

Airport or City:

Trip Planner

Search our weather history database for the weather conditions in past years. The results will help you decide how hot, cold, wet, or windy it might be!

Date:

Astronomy

Nov. 18, 2010 Rise Set
Actual Time 6:51 AM MST 5:20 PM MST
Civil Twilight 6:26 AM MST 5:46 PM MST
Nautical Twilight 5:56 AM MST 6:16 PM MST
Astronomical Twilight 5:27 AM MST 6:45 PM MST
Moon 3:16 PM MST 3:59 AM MST
Length of Visible Light 11h 20m
Length of Day
10h 28m
Waxing Gibbous, 91% of the Moon is Illuminated
Nov 18
Waxing Gibbous
Nov 21
Full
Nov 28
Last Quarter
Dec 5
New
Dec 13
First Quarter

Hourly Weather History & Observations

Time (MST) Temp. Windchill Dew Point Humidity Pressure Visibility Wind Dir Wind Speed Gust Speed Precip Events Conditions
12:56 AM 50.0 °F - 21.0 °F 32% 30.12 in 10.0 mi SSE 10.4 mph - N/A   Clear
1:56 AM - - - N/A% 30.13 in 10.0 mi SSE 9.2 mph - N/A   Clear
2:56 AM 46.9 °F - 21.9 °F 37% 30.13 in 10.0 mi SSE 6.9 mph - N/A   Clear
3:56 AM 46.0 °F 44.8 °F 21.9 °F 39% 30.14 in 10.0 mi North 3.5 mph - N/A   Clear
4:56 AM 46.0 °F 44.8 °F 21.9 °F 39% 30.14 in 10.0 mi East 3.5 mph - N/A   Clear
5:55 AM 44.6 °F - 21.2 °F 39% 30.19 in 10.0 mi Calm Calm - N/A   Clear
6:55 AM 44.6 °F - 21.2 °F 39% 30.21 in 50.0 mi SSE 2.3 mph - N/A   Clear
7:55 AM 48.2 °F - 23.0 °F 37% 30.20 in 90.0 mi Variable 1.2 mph - N/A   Clear
8:55 AM 53.6 °F - 23.0 °F 30% 30.20 in 90.0 mi North 5.8 mph - N/A   Clear
9:55 AM 59.0 °F - 24.8 °F 27% 30.19 in 90.0 mi Variable 6.9 mph - N/A   Clear
10:55 AM 64.4 °F - 24.8 °F 22% 30.15 in 90.0 mi East 10.4 mph - N/A   Clear
11:55 AM 66.2 °F - 24.8 °F 21% 30.12 in 90.0 mi SE 9.2 mph - N/A   Clear
12:55 PM 69.8 °F - 24.8 °F 18% 30.06 in 90.0 mi ESE 10.4 mph 15.0 mph N/A   Clear
1:55 PM 69.8 °F - 23.0 °F 17% 30.06 in 90.0 mi SE 9.2 mph - N/A   Clear
2:55 PM 69.8 °F - 21.2 °F 16% 30.04 in 90.0 mi Variable 6.9 mph - N/A   Clear
3:55 PM 71.6 °F - 23.0 °F 16% 30.02 in 90.0 mi Variable 5.8 mph - N/A   Clear
4:55 PM 66.2 °F - 21.2 °F 18% 30.03 in 90.0 mi Variable 5.8 mph - N/A   Clear
5:55 PM 57.2 °F - 21.2 °F 25% 30.08 in 35.0 mi South 5.8 mph - N/A   Clear
6:55 PM 59.0 °F - 21.2 °F 23% 30.07 in 10.0 mi South 5.8 mph - N/A   Clear
7:55 PM 60.8 °F - 21.2 °F 22% 30.05 in 10.0 mi South 8.1 mph - N/A   Clear
8:55 PM 55.4 °F - 23.0 °F 29% 30.07 in 10.0 mi Variable 3.5 mph - N/A   Clear
9:55 PM 53.6 °F - 23.0 °F 30% 30.06 in 10.0 mi Variable 5.8 mph - N/A   Clear
10:55 PM 51.8 °F - 23.0 °F 33% 30.04 in 10.0 mi Variable 4.6 mph - N/A   Clear
11:56 PM 48.9 °F - 23.0 °F 36% 30.03 in 10.0 mi WSW 3.5 mph - N/A   Clear